Time,TemperatureF,DewpointF,PressureIn,WindDirection,WindDirectionDegrees,WindSpeedMPH,WindSpeedGustMPH,Humidity,HourlyPrecipIn,Conditions,Clouds,dailyrainin,SoftwareType,DateUTC
2013-02-18 00:04:00,47.5,23.7,28.38,SSE,158,0.0,0.0,39,0.00,CLR,CLR,0.00,WeatherDisplay:10.37,2013-02-18 06:04:00,
2013-02-18 00:09:00,47.3,23.6,28.38,ESE,112,0.0,0.0,39,0.00,CLR,CLR,0.00,WeatherDisplay:10.37,2013-02-18 06:09:00,
2013-02-18 00:14:00,47.1,23.4,28.38,South,180,0.0,0.0,39,0.00,CLR,CLR,0.00,WeatherDisplay:10.37,2013-02-18 06:14:00,
2013-02-18 00:19:00,47.1,23.4,28.38,South,180,0.0,0.0,39,0.00,CLR,CLR,0.00,WeatherDisplay:10.37,2013-02-18 06:19:00,
2013-02-18 00:24:00,46.8,23.7,28.38,SSE,158,0.0,0.0,40,0.00,CLR,CLR,0.00,WeatherDisplay:10.37,2013-02-18 06:24:00,
2013-02-18 00:29:00,46.6,23.5,28.38,SE,135,0.0,0.0,40,0.00,CLR,CLR,0.00,WeatherDisplay:10.37,2013-02-18 06:29:00,
2013-02-18 00:34:00,46.4,23.4,28.38,SSE,158,0.0,0.0,40,0.00,CLR,CLR,0.00,WeatherDisplay:10.37,2013-02-18 06:34:00,
2013-02-18 00:39:00,46.0,23.6,28.38,SSE,158,0.0,0.0,41,0.00,CLR,CLR,0.00,WeatherDisplay:10.37,2013-02-18 06:39:00,
2013-02-18 00:44:00,45.9,23.5,28.38,SSE,158,0.0,0.0,41,0.00,CLR,CLR,0.00,WeatherDisplay:10.37,2013-02-18 06:44:00,
2013-02-18 00:49:00,45.5,23.7,28.38,SE,135,0.0,0.0,42,0.00,CLR,CLR,0.00,WeatherDisplay:10.37,2013-02-18 06:49:00,
2013-02-18 00:54:00,45.1,23.4,28.38,SE,135,0.0,0.0,42,0.00,CLR,CLR,0.00,WeatherDisplay:10.37,2013-02-18 06:54:00,
2013-02-18 00:59:00,44.6,23.5,28.38,SE,135,0.0,0.0,43,0.00,CLR,CLR,0.00,WeatherDisplay:10.37,2013-02-18 06:59:00,
2013-02-18 01:04:00,44.1,23.5,28.38,SE,135,0.0,0.0,44,0.00,CLR,CLR,0.00,WeatherDisplay:10.37,2013-02-18 07:04:00,
2013-02-18 01:09:00,43.9,23.9,28.38,SE,135,0.0,0.0,45,0.00,CLR,CLR,0.00,WeatherDisplay:10.37,2013-02-18 07:09:00,
2013-02-18 01:14:00,43.5,24.1,28.38,SE,135,0.0,0.0,46,0.00,CLR,CLR,0.00,WeatherDisplay:10.37,2013-02-18 07:14:00,
2013-02-18 01:19:00,43.0,24.1,28.38,SE,135,0.0,0.0,47,0.00,CLR,CLR,0.00,WeatherDisplay:10.37,2013-02-18 07:19:00,
2013-02-18 01:24:00,42.8,24.4,28.38,SE,135,0.0,0.0,48,0.00,CLR,CLR,0.00,WeatherDisplay:10.37,2013-02-18 07:24:00,
2013-02-18 01:29:00,42.4,24.1,28.41,WNW,292,4.9,4.9,48,0.00,CLR,CLR,0.00,WeatherDisplay:10.37,2013-02-18 07:29:00,
2013-02-18 01:34:00,42.4,24.6,28.41,West,270,3.5,0.0,49,0.00,CLR,CLR,0.00,WeatherDisplay:10.37,2013-02-18 07:34:00,
2013-02-18 01:39:00,43.0,24.6,28.41,NW,315,4.6,4.6,48,0.00,CLR,CLR,0.00,WeatherDisplay:10.37,2013-02-18 07:39:00,
2013-02-18 01:44:00,43.0,24.1,28.41,WNW,292,4.6,0.0,47,0.00,CLR,CLR,0.00,WeatherDisplay:10.37,2013-02-18 07:44:00,
2013-02-18 01:49:00,42.3,23.9,28.38,WNW,292,0.0,0.0,48,0.00,CLR,CLR,0.00,WeatherDisplay:10.37,2013-02-18 07:49:00,
2013-02-18 01:54:00,41.7,23.9,28.38,WNW,292,0.0,0.0,49,0.00,CLR,CLR,0.00,WeatherDisplay:10.37,2013-02-18 07:54:00,
2013-02-18 01:59:00,41.2,23.4,28.38,WNW,292,0.0,0.0,49,0.00,CLR,CLR,0.00,WeatherDisplay:10.37,2013-02-18 07:59:00,
2013-02-18 02:04:00,40.8,23.6,28.41,WNW,292,0.0,0.0,50,0.00,CLR,CLR,0.00,WeatherDisplay:10.37,2013-02-18 08:04:00,
2013-02-18 02:09:00,40.5,23.7,28.41,WNW,292,0.0,0.0,51,0.00,CLR,CLR,0.00,WeatherDisplay:10.37,2013-02-18 08:09:00,
2013-02-18 02:14:00,40.1,23.4,28.41,WNW,292,0.0,0.0,51,0.00,CLR,CLR,0.00,WeatherDisplay:10.37,2013-02-18 08:14:00,
2013-02-18 02:19:00,39.6,23.4,28.38,WNW,292,0.0,0.0,52,0.00,CLR,CLR,0.00,WeatherDisplay:10.37,2013-02-18 08:19:00,
2013-02-18 02:24:00,39.0,23.3,28.38,WNW,292,0.0,0.0,53,0.00,CLR,CLR,0.00,WeatherDisplay:10.37,2013-02-18 08:24:00,
2013-02-18 02:29:00,38.5,23.3,28.38,WNW,292,0.0,0.0,54,0.00,CLR,CLR,0.00,WeatherDisplay:10.37,2013-02-18 08:29:00,
2013-02-18 02:34:00,38.1,23.4,28.38,WNW,292,0.0,0.0,55,0.00,CLR,CLR,0.00,WeatherDisplay:10.37,2013-02-18 08:34:00,
2013-02-18 02:39:00,37.8,23.5,28.38,WNW,292,0.0,0.0,56,0.00,CLR,CLR,0.00,WeatherDisplay:10.37,2013-02-18 08:39:00,
2013-02-18 02:44:00,37.8,23.9,28.38,WNW,292,0.0,0.0,57,0.00,CLR,CLR,0.00,WeatherDisplay:10.37,2013-02-18 08:44:00,
2013-02-18 02:49:00,37.6,24.1,28.38,WNW,292,0.0,0.0,58,0.00,CLR,CLR,0.00,WeatherDisplay:10.37,2013-02-18 08:49:00,
2013-02-18 02:54:00,37.4,24.4,28.38,WNW,292,0.0,0.0,59,0.00,CLR,CLR,0.00,WeatherDisplay:10.37,2013-02-18 08:54:00,
2013-02-18 03:00:00,38.1,25.0,28.38,WNW,292,0.0,0.0,59,0.00,CLR,CLR,0.00,WeatherDisplay:10.37,2013-02-18 09:00:00,
2013-02-18 03:05:00,38.5,25.4,28.38,NNW,338,2.2,0.0,59,0.00,CLR,CLR,0.00,WeatherDisplay:10.37,2013-02-18 09:05:00,
2013-02-18 03:10:00,38.8,25.7,28.38,NNW,338,0.0,0.0,59,0.00,CLR,CLR,0.00,WeatherDisplay:10.37,2013-02-18 09:10:00,
2013-02-18 03:15:00,39.2,25.2,28.38,North,0,2.3,0.0,57,0.00,CLR,CLR,0.00,WeatherDisplay:10.37,2013-02-18 09:15:00,
2013-02-18 03:21:00,39.4,25.0,28.38,NNW,338,0.0,0.0,56,0.00,CLR,CLR,0.00,WeatherDisplay:10.37,2013-02-18 09:21:00,
2013-02-18 03:26:00,39.6,25.1,28.38,NNE,22,0.0,0.0,56,0.00,CLR,CLR,0.00,WeatherDisplay:10.37,2013-02-18 09:26:00,
2013-02-18 03:31:00,39.7,25.3,28.38,NW,315,0.0,0.0,56,0.00,CLR,CLR,0.00,WeatherDisplay:10.37,2013-02-18 09:31:00,
2013-02-18 03:36:00,39.7,25.3,28.38,NNW,338,0.0,0.0,56,0.00,CLR,CLR,0.00,WeatherDisplay:10.37,2013-02-18 09:36:00,
2013-02-18 03:42:00,39.6,25.6,28.38,NNW,338,3.6,0.0,57,0.00,CLR,CLR,0.00,WeatherDisplay:10.37,2013-02-18 09:42:00,
2013-02-18 03:47:00,39.6,25.6,28.38,NW,315,0.0,0.0,57,0.00,CLR,CLR,0.00,WeatherDisplay:10.37,2013-02-18 09:47:00,
2013-02-18 03:52:00,39.6,26.0,28.38,NNW,338,0.0,0.0,58,0.00,CLR,CLR,0.00,WeatherDisplay:10.37,2013-02-18 09:52:00,
2013-02-18 03:57:00,39.7,26.6,28.38,North,0,3.5,0.0,59,0.00,CLR,CLR,0.00,WeatherDisplay:10.37,2013-02-18 09:57:00,
2013-02-18 04:02:00,39.7,26.6,28.38,NW,315,3.5,0.0,59,0.00,CLR,CLR,0.00,WeatherDisplay:10.37,2013-02-18 10:02:00,
2013-02-18 04:07:00,39.7,26.6,28.38,NW,315,0.0,0.0,59,0.00,CLR,CLR,0.00,WeatherDisplay:10.37,2013-02-18 10:07:00,
2013-02-18 04:12:00,39.7,27.0,28.38,NNW,338,2.3,0.0,60,0.00,CLR,CLR,0.00,WeatherDisplay:10.37,2013-02-18 10:12:00,
2013-02-18 04:17:00,39.7,27.0,28.38,NW,315,5.4,0.0,60,0.00,CLR,CLR,0.00,WeatherDisplay:10.37,2013-02-18 10:17:00,
2013-02-18 04:22:00,39.6,26.8,28.38,NW,315,0.0,0.0,60,0.00,CLR,CLR,0.00,WeatherDisplay:10.37,2013-02-18 10:22:00,
2013-02-18 04:27:00,39.4,27.0,28.38,NNW,338,0.0,0.0,61,0.00,CLR,CLR,0.00,WeatherDisplay:10.37,2013-02-18 10:27:00,
2013-02-18 04:32:00,39.2,26.9,28.38,NNW,338,0.0,0.0,61,0.00,CLR,CLR,0.00,WeatherDisplay:10.37,2013-02-18 10:32:00,
2013-02-18 04:39:00,39.2,27.3,28.38,NW,315,0.0,0.0,62,0.00,CLR,CLR,0.00,WeatherDisplay:10.37,2013-02-18 10:39:00,
2013-02-18 04:44:00,39.2,27.3,28.38,NW,315,2.3,0.0,62,0.00,CLR,CLR,0.00,WeatherDisplay:10.37,2013-02-18 10:44:00,
2013-02-18 04:49:00,39.2,27.7,28.38,NNW,338,8.1,8.1,63,0.00,CLR,CLR,0.00,WeatherDisplay:10.37,2013-02-18 10:49:00,
2013-02-18 04:54:00,39.2,27.7,28.38,NW,315,2.6,0.0,63,0.00,CLR,CLR,0.00,WeatherDisplay:10.37,2013-02-18 10:54:00,
2013-02-18 05:00:00,39.2,27.7,28.41,NW,315,3.1,0.0,63,0.00,CLR,CLR,0.00,WeatherDisplay:10.37,2013-02-18 11:00:00,
2013-02-18 05:05:00,39.4,27.8,28.41,NW,315,2.6,0.0,63,0.00,CLR,CLR,0.00,WeatherDisplay:10.37,2013-02-18 11:05:00,
2013-02-18 05:10:00,39.6,28.0,28.41,NW,315,0.0,0.0,63,0.00,CLR,CLR,0.00,WeatherDisplay:10.37,2013-02-18 11:10:00,
2013-02-18 05:15:00,39.6,28.0,28.41,NW,315,5.8,0.0,63,0.00,CLR,CLR,0.00,WeatherDisplay:10.37,2013-02-18 11:15:00,
2013-02-18 05:20:00,39.6,28.0,28.41,NNW,338,4.6,0.0,63,0.00,CLR,CLR,0.00,WeatherDisplay:10.37,2013-02-18 11:20:00,
2013-02-18 05:25:00,39.4,27.8,28.41,NW,315,2.3,0.0,63,0.00,CLR,CLR,0.00,WeatherDisplay:10.37,2013-02-18 11:25:00,
2013-02-18 05:30:00,39.2,27.7,28.41,NNW,338,2.3,0.0,63,0.00,CLR,CLR,0.00,WeatherDisplay:10.37,2013-02-18 11:30:00,
2013-02-18 05:35:00,39.0,27.9,28.41,NW,315,0.0,0.0,64,0.00,CLR,CLR,0.00,WeatherDisplay:10.37,2013-02-18 11:35:00,
2013-02-18 05:40:00,38.8,27.7,28.41,NW,315,2.3,0.0,64,0.00,CLR,CLR,0.00,WeatherDisplay:10.37,2013-02-18 11:40:00,
2013-02-18 05:45:00,38.8,28.1,28.44,NNW,338,0.0,0.0,65,0.00,CLR,CLR,0.00,WeatherDisplay:10.37,2013-02-18 11:45:00,
2013-02-18 05:50:00,38.7,27.9,28.44,NW,315,0.0,0.0,65,0.00,CLR,CLR,0.00,WeatherDisplay:10.37,2013-02-18 11:50:00,
2013-02-18 05:56:00,38.7,27.9,28.44,NW,315,4.0,0.0,65,0.00,CLR,CLR,0.00,WeatherDisplay:10.37,2013-02-18 11:56:00,
2013-02-18 06:01:00,38.7,27.9,28.44,NW,315,0.0,0.0,65,0.00,CLR,CLR,0.00,WeatherDisplay:10.37,2013-02-18 12:01:00,
2013-02-18 06:06:00,38.5,27.7,28.44,North,0,2.3,0.0,65,0.00,CLR,CLR,0.00,WeatherDisplay:10.37,2013-02-18 12:06:00,
2013-02-18 06:11:00,38.3,27.6,28.44,NNW,338,3.5,0.0,65,0.00,CLR,CLR,0.00,WeatherDisplay:10.37,2013-02-18 12:11:00,
2013-02-18 06:16:00,38.3,27.6,28.44,NNW,338,0.0,0.0,65,0.00,CLR,CLR,0.00,WeatherDisplay:10.37,2013-02-18 12:16:00,
2013-02-18 06:21:00,38.1,27.4,28.44,NNW,338,0.0,0.0,65,0.00,CLR,CLR,0.00,WeatherDisplay:10.37,2013-02-18 12:21:00,
2013-02-18 06:26:00,38.1,27.4,28.44,North,0,0.0,0.0,65,0.00,CLR,CLR,0.00,WeatherDisplay:10.37,2013-02-18 12:26:00,
2013-02-18 06:31:00,37.9,27.2,28.44,NNW,338,0.0,0.0,65,0.00,CLR,CLR,0.00,WeatherDisplay:10.37,2013-02-18 12:31:00,
2013-02-18 06:36:00,37.9,27.2,28.44,NNW,338,0.0,0.0,65,0.00,CLR,CLR,0.00,WeatherDisplay:10.37,2013-02-18 12:36:00,
2013-02-18 06:42:00,37.8,27.4,28.44,NW,315,0.0,0.0,66,0.00,CLR,CLR,0.00,WeatherDisplay:10.37,2013-02-18 12:42:00,
2013-02-18 06:47:00,37.6,27.2,28.44,NW,315,0.0,0.0,66,0.00,CLR,CLR,0.00,WeatherDisplay:10.37,2013-02-18 12:47:00,
2013-02-18 06:52:00,37.4,27.1,28.44,NNW,338,0.0,0.0,66,0.00,CLR,CLR,0.00,WeatherDisplay:10.37,2013-02-18 12:52:00,
2013-02-18 06:57:00,37.4,27.4,28.44,North,0,0.0,0.0,67,0.00,CLR,CLR,0.00,WeatherDisplay:10.37,2013-02-18 12:57:00,
2013-02-18 07:02:00,37.0,27.5,28.47,North,0,0.0,0.0,68,0.00,CLR,CLR,0.00,WeatherDisplay:10.37,2013-02-18 13:02:00,
2013-02-18 07:07:00,36.9,27.3,28.47,North,0,0.0,0.0,68,0.00,CLR,CLR,0.00,WeatherDisplay:10.37,2013-02-18 13:07:00,
2013-02-18 07:12:00,36.9,27.3,28.47,NNW,338,0.0,0.0,68,0.00,CLR,CLR,0.00,WeatherDisplay:10.37,2013-02-18 13:12:00,
2013-02-18 07:17:00,37.0,27.8,28.47,NNW,338,0.0,0.0,69,0.00,CLR,CLR,0.00,WeatherDisplay:10.37,2013-02-18 13:17:00,
2013-02-18 07:22:00,37.2,28.0,28.47,NW,315,0.0,0.0,69,0.00,CLR,CLR,0.00,WeatherDisplay:10.37,2013-02-18 13:22:00,
2013-02-18 07:27:00,37.4,28.2,28.47,NW,315,0.0,0.0,69,0.00,CLR,CLR,0.00,WeatherDisplay:10.37,2013-02-18 13:27:00,
2013-02-18 07:32:00,37.6,28.3,28.47,NW,315,0.0,0.0,69,0.00,CLR,CLR,0.00,WeatherDisplay:10.37,2013-02-18 13:32:00,
2013-02-18 07:37:00,37.6,28.0,28.47,NNW,338,0.0,0.0,68,0.00,CLR,CLR,0.00,WeatherDisplay:10.37,2013-02-18 13:37:00,
2013-02-18 07:42:00,37.6,28.0,28.47,NW,315,0.0,0.0,68,0.00,CLR,CLR,0.00,WeatherDisplay:10.37,2013-02-18 13:42:00,
2013-02-18 07:47:00,37.6,28.0,28.47,NW,315,0.0,0.0,68,0.00,CLR,CLR,0.00,WeatherDisplay:10.37,2013-02-18 13:47:00,
2013-02-18 07:52:00,37.6,28.0,28.47,NW,315,0.0,0.0,68,0.00,CLR,CLR,0.00,WeatherDisplay:10.37,2013-02-18 13:52:00,
2013-02-18 07:57:00,37.6,28.0,28.47,NW,315,0.0,0.0,68,0.00,CLR,CLR,0.00,WeatherDisplay:10.37,2013-02-18 13:57:00,
2013-02-18 08:02:00,37.8,28.1,28.50,NW,315,0.0,0.0,68,0.00,CLR,CLR,0.00,WeatherDisplay:10.37,2013-02-18 14:02:00,
2013-02-18 08:07:00,37.9,28.3,28.50,NW,315,0.0,0.0,68,0.00,CLR,CLR,0.00,WeatherDisplay:10.37,2013-02-18 14:07:00,
2013-02-18 08:13:00,37.9,28.0,28.50,NNW,338,0.0,0.0,67,0.00,CLR,CLR,0.00,WeatherDisplay:10.37,2013-02-18 14:13:00,
2013-02-18 08:18:00,37.9,28.0,28.50,NW,315,0.0,0.0,67,0.00,CLR,CLR,0.00,WeatherDisplay:10.37,2013-02-18 14:18:00,
2013-02-18 08:24:00,37.9,28.0,28.50,WNW,292,0.0,0.0,67,0.00,CLR,CLR,0.00,WeatherDisplay:10.37,2013-02-18 14:24:00,
2013-02-18 08:29:00,37.9,27.6,28.50,NW,315,0.0,0.0,66,0.00,CLR,CLR,0.00,WeatherDisplay:10.37,2013-02-18 14:29:00,
2013-02-18 08:34:00,37.9,27.6,28.50,NNW,338,0.0,0.0,66,0.00,CLR,CLR,0.00,WeatherDisplay:10.37,2013-02-18 14:34:00,
2013-02-18 08:39:00,38.1,27.4,28.50,NW,315,0.0,0.0,65,0.00,CLR,CLR,0.00,WeatherDisplay:10.37,2013-02-18 14:39:00,
2013-02-18 08:44:00,38.1,27.0,28.50,NNW,338,0.0,0.0,64,0.00,CLR,CLR,0.00,WeatherDisplay:10.37,2013-02-18 14:44:00,
2013-02-18 08:49:00,38.5,27.0,28.50,NNW,338,0.0,0.0,63,0.00,CLR,CLR,0.00,WeatherDisplay:10.37,2013-02-18 14:49:00,
2013-02-18 08:54:00,38.5,26.2,28.50,NW,315,5.8,0.0,61,0.00,CLR,CLR,0.00,WeatherDisplay:10.37,2013-02-18 14:54:00,
2013-02-18 08:59:00,38.5,25.8,28.50,NW,315,5.9,5.9,60,0.00,CLR,CLR,0.00,WeatherDisplay:10.37,2013-02-18 14:59:00,
2013-02-18 09:04:00,38.5,25.0,28.53,NNW,338,9.2,9.2,58,0.00,CLR,CLR,0.00,WeatherDisplay:10.37,2013-02-18 15:04:00,
2013-02-18 09:09:00,38.5,24.1,28.53,NW,315,11.5,11.5,56,0.00,CLR,CLR,0.00,WeatherDisplay:10.37,2013-02-18 15:09:00,
2013-02-18 09:14:00,38.5,23.7,28.53,NNW,338,9.2,9.2,55,0.00,CLR,CLR,0.00,WeatherDisplay:10.37,2013-02-18 15:14:00,
2013-02-18 09:19:00,38.3,23.5,28.53,NW,315,5.9,5.9,55,0.00,CLR,CLR,0.00,WeatherDisplay:10.37,2013-02-18 15:19:00,
2013-02-18 09:24:00,38.3,23.5,28.53,NW,315,6.2,6.2,55,0.00,CLR,CLR,0.00,WeatherDisplay:10.37,2013-02-18 15:24:00,
2013-02-18 09:29:00,38.5,23.3,28.53,NNW,338,5.9,0.0,54,0.00,CLR,CLR,0.00,WeatherDisplay:10.37,2013-02-18 15:29:00,
2013-02-18 09:34:00,38.5,23.3,28.53,NW,315,3.6,3.6,54,0.00,CLR,CLR,0.00,WeatherDisplay:10.37,2013-02-18 15:34:00,
2013-02-18 09:39:00,38.5,23.3,28.53,NNW,338,3.1,0.0,54,0.00,CLR,CLR,0.00,WeatherDisplay:10.37,2013-02-18 15:39:00,
2013-02-18 09:44:00,38.5,22.8,28.53,NW,315,8.1,8.1,53,0.00,CLR,CLR,0.00,WeatherDisplay:10.37,2013-02-18 15:44:00,
2013-02-18 09:49:00,38.5,22.8,28.53,NW,315,8.1,8.1,53,0.00,CLR,CLR,0.00,WeatherDisplay:10.37,2013-02-18 15:49:00,
2013-02-18 09:54:00,38.1,22.9,28.53,WNW,292,6.2,6.2,54,0.00,CLR,CLR,0.00,WeatherDisplay:10.37,2013-02-18 15:54:00,
2013-02-18 10:00:00,37.6,24.9,28.56,NNW,338,10.4,10.4,60,0.00,CLR,CLR,0.00,WeatherDisplay:10.37,2013-02-18 16:00:00,
2013-02-18 10:05:00,37.4,27.1,28.56,NW,315,4.6,4.6,66,0.00,CLR,CLR,0.00,WeatherDisplay:10.37,2013-02-18 16:05:00,
2013-02-18 10:11:00,37.4,28.5,28.56,West,270,2.2,0.0,70,0.00,CLR,CLR,0.00,WeatherDisplay:10.37,2013-02-18 16:11:00,
2013-02-18 10:16:00,37.8,30.2,28.56,WNW,292,5.8,0.0,74,0.00,CLR,CLR,0.00,WeatherDisplay:10.37,2013-02-18 16:16:00,
2013-02-18 10:21:00,38.1,31.2,28.56,NW,315,4.9,0.0,76,0.00,CLR,CLR,0.00,WeatherDisplay:10.37,2013-02-18 16:21:00,
2013-02-18 10:26:00,38.8,32.6,28.56,WNW,292,4.6,4.6,78,0.00,CLR,CLR,0.00,WeatherDisplay:10.37,2013-02-18 16:26:00,
2013-02-18 10:32:00,40.3,34.6,28.56,NW,315,4.6,0.0,80,0.00,CLR,CLR,0.00,WeatherDisplay:10.37,2013-02-18 16:32:00,
2013-02-18 10:37:00,41.5,36.1,28.56,NW,315,4.6,4.6,81,0.00,CLR,CLR,0.00,WeatherDisplay:10.37,2013-02-18 16:37:00,
2013-02-18 10:43:00,42.4,37.3,28.56,NW,315,4.6,0.0,82,0.00,CLR,CLR,0.00,WeatherDisplay:10.37,2013-02-18 16:43:00,
2013-02-18 10:49:00,42.8,37.7,28.56,NW,315,4.9,4.9,82,0.00,CLR,CLR,0.00,WeatherDisplay:10.37,2013-02-18 16:49:00,
2013-02-18 10:54:00,42.3,37.2,28.56,WNW,292,5.8,5.8,82,0.00,CLR,CLR,0.00,WeatherDisplay:10.37,2013-02-18 16:54:00,
2013-02-18 10:59:00,41.0,35.3,28.56,WSW,248,12.8,12.8,80,0.00,CLR,CLR,0.00,WeatherDisplay:10.37,2013-02-18 16:59:00,
2013-02-18 11:05:00,37.2,30.3,28.58,NW,315,13.8,13.8,76,0.00,CLR,CLR,0.00,WeatherDisplay:10.37,2013-02-18 17:05:00,
2013-02-18 11:10:00,35.8,28.0,28.58,NW,315,10.4,10.4,73,0.00,CLR,CLR,0.00,WeatherDisplay:10.37,2013-02-18 17:10:00,
2013-02-18 11:15:00,35.1,26.6,28.58,NW,315,8.1,8.1,71,0.00,CLR,CLR,0.00,WeatherDisplay:10.37,2013-02-18 17:15:00,
2013-02-18 11:20:00,34.9,25.7,28.58,NW,315,4.9,0.0,69,0.00,CLR,CLR,0.00,WeatherDisplay:10.37,2013-02-18 17:20:00,
2013-02-18 11:25:00,35.1,26.3,28.58,NW,315,11.5,11.5,70,0.00,CLR,CLR,0.00,WeatherDisplay:10.37,2013-02-18 17:25:00,
2013-02-18 11:30:00,34.9,25.4,28.61,NNW,338,12.3,12.3,68,0.00,CLR,CLR,0.00,WeatherDisplay:10.37,2013-02-18 17:30:00,
2013-02-18 11:36:00,34.9,25.4,28.61,NW,315,9.2,9.2,68,0.00,CLR,CLR,0.00,WeatherDisplay:10.37,2013-02-18 17:36:00,
2013-02-18 11:42:00,34.5,24.7,28.61,NW,315,11.5,11.5,67,0.00,CLR,CLR,0.00,WeatherDisplay:10.37,2013-02-18 17:42:00,
2013-02-18 11:47:00,34.5,24.7,28.61,NW,315,8.3,8.3,67,0.00,CLR,CLR,0.00,WeatherDisplay:10.37,2013-02-18 17:47:00,
2013-02-18 11:52:00,34.3,24.2,28.61,NW,315,11.8,11.8,66,0.00,CLR,CLR,0.00,WeatherDisplay:10.37,2013-02-18 17:52:00,
2013-02-18 11:57:00,34.2,23.6,28.61,NW,315,13.8,13.8,65,0.00,CLR,CLR,0.00,WeatherDisplay:10.37,2013-02-18 17:57:00,
2013-02-18 12:02:00,34.0,23.1,28.61,WNW,292,8.1,8.1,64,0.00,CLR,CLR,0.00,WeatherDisplay:10.37,2013-02-18 18:02:00,
2013-02-18 12:07:00,33.8,22.9,28.61,WNW,292,4.6,4.6,64,0.00,CLR,CLR,0.00,WeatherDisplay:10.37,2013-02-18 18:07:00,
2013-02-18 12:12:00,33.8,23.3,28.61,WNW,292,3.1,0.0,65,0.00,CLR,CLR,0.00,WeatherDisplay:10.37,2013-02-18 18:12:00,
2013-02-18 12:17:00,33.8,23.3,28.61,NW,315,4.9,0.0,65,0.00,CLR,CLR,0.00,WeatherDisplay:10.37,2013-02-18 18:17:00,
2013-02-18 12:22:00,33.6,23.1,28.61,NW,315,12.8,12.8,65,0.00,CLR,CLR,0.00,WeatherDisplay:10.37,2013-02-18 18:22:00,
2013-02-18 12:27:00,33.3,22.0,28.61,NW,315,9.2,9.2,63,0.00,CLR,CLR,0.00,WeatherDisplay:10.37,2013-02-18 18:27:00,
2013-02-18 12:32:00,33.1,21.5,28.64,WNW,292,9.7,9.7,62,0.00,CLR,CLR,0.00,WeatherDisplay:10.37,2013-02-18 18:32:00,
2013-02-18 12:38:00,33.1,21.5,28.64,NW,315,4.6,0.0,62,0.00,CLR,CLR,0.00,WeatherDisplay:10.37,2013-02-18 18:38:00,
2013-02-18 12:43:00,32.7,20.4,28.64,WNW,292,8.3,0.0,60,0.00,CLR,CLR,0.00,WeatherDisplay:10.37,2013-02-18 18:43:00,
2013-02-18 12:48:00,32.5,20.2,28.64,NW,315,11.5,11.5,60,0.00,CLR,CLR,0.00,WeatherDisplay:10.37,2013-02-18 18:48:00,
2013-02-18 12:53:00,32.5,20.2,28.64,NW,315,7.6,7.6,60,0.00,CLR,CLR,0.00,WeatherDisplay:10.37,2013-02-18 18:53:00,
2013-02-18 12:58:00,32.5,20.2,28.64,WNW,292,5.9,5.9,60,0.00,CLR,CLR,0.00,WeatherDisplay:10.37,2013-02-18 18:58:00,
2013-02-18 13:03:00,32.4,20.0,28.64,NW,315,10.5,10.5,60,0.00,CLR,CLR,0.00,WeatherDisplay:10.37,2013-02-18 19:03:00,
2013-02-18 13:08:00,32.4,19.6,28.64,WNW,292,12.7,12.7,59,0.00,CLR,CLR,0.00,WeatherDisplay:10.37,2013-02-18 19:08:00,
2013-02-18 13:13:00,32.2,19.4,28.64,NNW,338,17.3,17.3,59,0.00,CLR,CLR,0.00,WeatherDisplay:10.37,2013-02-18 19:13:00,
2013-02-18 13:18:00,31.6,18.9,28.67,NW,315,10.4,10.4,59,0.00,CLR,CLR,0.00,WeatherDisplay:10.37,2013-02-18 19:18:00,
2013-02-18 13:23:00,31.3,18.2,28.67,NW,315,9.2,9.2,58,0.00,CLR,CLR,0.00,WeatherDisplay:10.37,2013-02-18 19:23:00,
2013-02-18 13:28:00,31.1,17.2,28.67,WNW,292,9.7,9.7,56,0.00,CLR,CLR,0.00,WeatherDisplay:10.37,2013-02-18 19:28:00,
2013-02-18 13:33:00,31.1,16.8,28.64,WNW,292,7.6,7.6,55,0.00,CLR,CLR,0.00,WeatherDisplay:10.37,2013-02-18 19:33:00,
2013-02-18 13:38:00,31.1,16.4,28.64,WNW,292,7.1,7.1,54,0.00,CLR,CLR,0.00,WeatherDisplay:10.37,2013-02-18 19:38:00,
2013-02-18 13:43:00,31.3,16.5,28.64,NW,315,5.8,5.8,54,0.00,CLR,CLR,0.00,WeatherDisplay:10.37,2013-02-18 19:43:00,
2013-02-18 13:48:00,31.5,16.7,28.64,WNW,292,6.2,6.2,54,0.00,CLR,CLR,0.00,WeatherDisplay:10.37,2013-02-18 19:48:00,
2013-02-18 13:53:00,31.1,15.5,28.64,NW,315,12.8,12.8,52,0.00,CLR,CLR,0.00,WeatherDisplay:10.37,2013-02-18 19:53:00,
2013-02-18 13:58:00,31.1,15.5,28.64,NW,315,6.9,6.9,52,0.00,CLR,CLR,0.00,WeatherDisplay:10.37,2013-02-18 19:58:00,
2013-02-18 14:03:00,31.3,15.7,28.67,WNW,292,5.9,5.9,52,0.00,CLR,CLR,0.00,WeatherDisplay:10.37,2013-02-18 20:03:00,
2013-02-18 14:08:00,31.1,15.1,28.67,WNW,292,10.4,10.4,51,0.00,CLR,CLR,0.00,WeatherDisplay:10.37,2013-02-18 20:08:00,
2013-02-18 14:13:00,31.1,15.1,28.67,West,270,4.6,0.0,51,0.00,CLR,CLR,0.00,WeatherDisplay:10.37,2013-02-18 20:13:00,
2013-02-18 14:18:00,31.1,15.1,28.67,WNW,292,5.9,5.9,51,0.00,CLR,CLR,0.00,WeatherDisplay:10.37,2013-02-18 20:18:00,
2013-02-18 14:23:00,31.1,14.6,28.67,NW,315,8.1,8.1,50,0.00,CLR,CLR,0.00,WeatherDisplay:10.37,2013-02-18 20:23:00,
2013-02-18 14:28:00,30.9,14.0,28.67,NW,315,11.5,11.5,49,0.00,CLR,CLR,0.00,WeatherDisplay:10.37,2013-02-18 20:28:00,
2013-02-18 14:33:00,31.1,14.1,28.70,NW,315,10.5,10.5,49,0.00,CLR,CLR,0.00,WeatherDisplay:10.37,2013-02-18 20:33:00,
2013-02-18 14:38:00,30.9,13.0,28.70,WNW,292,12.7,12.7,47,0.00,CLR,CLR,0.00,WeatherDisplay:10.37,2013-02-18 20:38:00,
2013-02-18 14:43:00,31.1,12.7,28.70,WSW,248,15.4,15.4,46,0.00,CLR,CLR,0.00,WeatherDisplay:10.37,2013-02-18 20:43:00,
2013-02-18 14:48:00,31.3,11.9,28.67,NW,315,11.5,11.5,44,0.00,CLR,CLR,0.00,WeatherDisplay:10.37,2013-02-18 20:48:00,
2013-02-18 14:53:00,31.6,11.7,28.67,NW,315,11.5,11.5,43,0.00,CLR,CLR,0.00,WeatherDisplay:10.37,2013-02-18 20:53:00,
2013-02-18 14:58:00,31.8,11.8,28.67,NW,315,8.7,8.7,43,0.00,CLR,CLR,0.00,WeatherDisplay:10.37,2013-02-18 20:58:00,
2013-02-18 15:03:00,32.2,11.6,28.70,NW,315,10.9,10.9,42,0.00,CLR,CLR,0.00,WeatherDisplay:10.37,2013-02-18 21:03:00,
2013-02-18 15:09:00,31.8,11.3,28.70,WNW,292,8.3,8.3,42,0.00,CLR,CLR,0.00,WeatherDisplay:10.37,2013-02-18 21:09:00,
2013-02-18 15:15:00,31.6,11.1,28.67,NW,315,9.2,9.2,42,0.00,CLR,CLR,0.00,WeatherDisplay:10.37,2013-02-18 21:15:00,
2013-02-18 15:21:00,31.8,11.3,28.67,NW,315,12.7,12.7,42,0.00,CLR,CLR,0.00,WeatherDisplay:10.37,2013-02-18 21:21:00,
2013-02-18 15:27:00,31.8,11.3,28.67,West,270,9.2,9.2,42,0.00,CLR,CLR,0.00,WeatherDisplay:10.37,2013-02-18 21:27:00,
2013-02-18 15:33:00,32.4,11.2,28.70,NW,315,7.1,7.1,41,0.00,CLR,CLR,0.00,WeatherDisplay:10.37,2013-02-18 21:33:00,
2013-02-18 15:38:00,32.5,10.9,28.70,West,270,6.2,6.2,40,0.00,CLR,CLR,0.00,WeatherDisplay:10.37,2013-02-18 21:38:00,
2013-02-18 15:43:00,33.3,11.5,28.70,NW,315,11.5,11.5,40,0.00,CLR,CLR,0.00,WeatherDisplay:10.37,2013-02-18 21:43:00,
2013-02-18 15:48:00,32.7,11.0,28.70,NW,315,13.8,13.8,40,0.00,CLR,CLR,0.00,WeatherDisplay:10.37,2013-02-18 21:48:00,
2013-02-18 15:53:00,32.4,10.1,28.70,NW,315,8.1,8.1,39,0.00,CLR,CLR,0.00,WeatherDisplay:10.37,2013-02-18 21:53:00,
2013-02-18 15:58:00,32.5,9.1,28.70,NW,315,21.9,21.9,37,0.00,CLR,CLR,0.00,WeatherDisplay:10.37,2013-02-18 21:58:00,
2013-02-18 16:03:00,32.7,8.7,28.70,NW,315,11.5,11.5,36,0.00,CLR,CLR,0.00,WeatherDisplay:10.37,2013-02-18 22:03:00,
2013-02-18 16:08:00,32.7,8.7,28.70,NW,315,8.1,8.1,36,0.00,CLR,CLR,0.00,WeatherDisplay:10.37,2013-02-18 22:08:00,
2013-02-18 16:13:00,32.7,8.0,28.70,NW,315,16.1,16.1,35,0.00,CLR,CLR,0.00,WeatherDisplay:10.37,2013-02-18 22:13:00,
2013-02-18 16:18:00,32.5,7.9,28.73,WNW,292,15.4,15.4,35,0.00,CLR,CLR,0.00,WeatherDisplay:10.37,2013-02-18 22:18:00,
2013-02-18 16:23:00,32.5,7.9,28.73,NW,315,8.1,8.1,35,0.00,CLR,CLR,0.00,WeatherDisplay:10.37,2013-02-18 22:23:00,
2013-02-18 16:28:00,32.5,7.9,28.73,WSW,248,12.7,12.7,35,0.00,CLR,CLR,0.00,WeatherDisplay:10.37,2013-02-18 22:28:00,
2013-02-18 16:34:00,32.5,7.9,28.73,NW,315,10.4,10.4,35,0.00,CLR,CLR,0.00,WeatherDisplay:10.37,2013-02-18 22:34:00,
2013-02-18 16:39:00,32.5,7.9,28.73,NW,315,15.4,15.4,35,0.00,CLR,CLR,0.00,WeatherDisplay:10.37,2013-02-18 22:39:00,
2013-02-18 16:44:00,32.4,7.7,28.73,NW,315,12.7,12.7,35,0.00,CLR,CLR,0.00,WeatherDisplay:10.37,2013-02-18 22:44:00,
2013-02-18 16:49:00,32.5,7.9,28.73,WNW,292,8.3,8.3,35,0.00,CLR,CLR,0.00,WeatherDisplay:10.37,2013-02-18 22:49:00,
2013-02-18 16:54:00,32.5,7.9,28.73,West,270,12.7,12.7,35,0.00,CLR,CLR,0.00,WeatherDisplay:10.37,2013-02-18 22:54:00,
2013-02-18 16:59:00,32.5,7.9,28.73,WNW,292,9.2,9.2,35,0.00,CLR,CLR,0.00,WeatherDisplay:10.37,2013-02-18 22:59:00,
2013-02-18 17:04:00,32.4,8.3,28.73,NW,315,11.4,11.4,36,0.00,CLR,CLR,0.00,WeatherDisplay:10.37,2013-02-18 23:04:00,
2013-02-18 17:09:00,31.8,7.9,28.73,WNW,292,10.0,10.0,36,0.00,CLR,CLR,0.00,WeatherDisplay:10.37,2013-02-18 23:09:00,
2013-02-18 17:14:00,31.6,7.7,28.73,West,270,7.1,7.1,36,0.00,CLR,CLR,0.00,WeatherDisplay:10.37,2013-02-18 23:14:00,
2013-02-18 17:19:00,31.8,8.5,28.73,West,270,12.7,12.7,37,0.00,CLR,CLR,0.00,WeatherDisplay:10.37,2013-02-18 23:19:00,
2013-02-18 17:24:00,31.6,8.3,28.73,WNW,292,10.4,10.4,37,0.00,CLR,CLR,0.00,WeatherDisplay:10.37,2013-02-18 23:24:00,
2013-02-18 17:29:00,31.5,8.7,28.73,NW,315,8.1,8.1,38,0.00,CLR,CLR,0.00,WeatherDisplay:10.37,2013-02-18 23:29:00,
2013-02-18 17:34:00,30.9,8.2,28.73,West,270,14.0,14.0,38,0.00,CLR,CLR,0.00,WeatherDisplay:10.37,2013-02-18 23:34:00,
2013-02-18 17:39:00,30.7,8.1,28.73,WNW,292,15.0,15.0,38,0.00,CLR,CLR,0.00,WeatherDisplay:10.37,2013-02-18 23:39:00,
2013-02-18 17:44:00,30.6,8.5,28.73,NW,315,9.7,9.7,39,0.00,CLR,CLR,0.00,WeatherDisplay:10.37,2013-02-18 23:44:00,
2013-02-18 17:54:00,30.0,8.0,28.76,WNW,292,0.0,5.9,39,0.00,CLR,CLR,0.00,WeatherDisplay:10.37,2013-02-18 23:54:00,
2013-02-18 17:59:00,29.8,8.4,28.76,West,270,8.3,8.3,40,0.00,CLR,CLR,0.00,WeatherDisplay:10.37,2013-02-18 23:59:00,
2013-02-18 18:04:00,29.7,8.3,28.79,NW,315,5.8,0.0,40,0.00,CLR,CLR,0.00,WeatherDisplay:10.37,2013-02-19 00:04:00,
2013-02-18 18:09:00,29.5,8.6,28.79,NW,315,5.8,5.8,41,0.00,CLR,CLR,0.00,WeatherDisplay:10.37,2013-02-19 00:09:00,
2013-02-18 18:14:00,29.3,8.5,28.79,West,270,10.5,10.5,41,0.00,CLR,CLR,0.00,WeatherDisplay:10.37,2013-02-19 00:14:00,
2013-02-18 18:19:00,29.3,8.5,28.76,West,270,3.5,0.0,41,0.00,CLR,CLR,0.00,WeatherDisplay:10.37,2013-02-19 00:19:00,
2013-02-18 18:24:00,28.9,8.1,28.76,WNW,292,6.9,6.9,41,0.00,CLR,CLR,0.00,WeatherDisplay:10.37,2013-02-19 00:24:00,
2013-02-18 18:29:00,28.9,8.1,28.79,WNW,292,4.6,0.0,41,0.00,CLR,CLR,0.00,WeatherDisplay:10.37,2013-02-19 00:29:00,
2013-02-18 18:34:00,28.8,8.0,28.79,NW,315,0.0,0.0,41,0.00,CLR,CLR,0.00,WeatherDisplay:10.37,2013-02-19 00:34:00,
2013-02-18 18:39:00,28.6,8.4,28.79,WNW,292,0.0,0.0,42,0.00,CLR,CLR,0.00,WeatherDisplay:10.37,2013-02-19 00:39:00,
2013-02-18 18:45:00,28.4,8.2,28.79,WNW,292,0.0,0.0,42,0.00,CLR,CLR,0.00,WeatherDisplay:10.37,2013-02-19 00:45:00,
2013-02-18 18:51:00,28.2,8.0,28.79,WNW,292,0.0,0.0,42,0.00,CLR,CLR,0.00,WeatherDisplay:10.37,2013-02-19 00:51:00,
2013-02-18 18:56:00,28.2,8.6,28.79,NW,315,0.0,0.0,43,0.00,CLR,CLR,0.00,WeatherDisplay:10.37,2013-02-19 00:56:00,
2013-02-18 19:02:00,28.4,8.7,28.79,West,270,3.6,0.0,43,0.00,CLR,CLR,0.00,WeatherDisplay:10.37,2013-02-19 01:02:00,
2013-02-18 19:07:00,28.6,8.4,28.79,WNW,292,0.0,0.0,42,0.00,CLR,CLR,0.00,WeatherDisplay:10.37,2013-02-19 01:07:00,
2013-02-18 19:13:00,28.4,8.2,28.79,NW,315,3.5,0.0,42,0.00,CLR,CLR,0.00,WeatherDisplay:10.37,2013-02-19 01:13:00,
2013-02-18 19:18:00,28.4,8.2,28.79,NW,315,8.1,8.1,42,0.00,CLR,CLR,0.00,WeatherDisplay:10.37,2013-02-19 01:18:00,
2013-02-18 19:23:00,28.6,7.8,28.79,NW,315,9.2,9.2,41,0.00,CLR,CLR,0.00,WeatherDisplay:10.37,2013-02-19 01:23:00,
2013-02-18 19:28:00,28.6,7.8,28.79,West,270,0.0,0.0,41,0.00,CLR,CLR,0.00,WeatherDisplay:10.37,2013-02-19 01:28:00,
2013-02-18 19:34:00,28.2,7.5,28.79,WNW,292,3.6,0.0,41,0.00,CLR,CLR,0.00,WeatherDisplay:10.37,2013-02-19 01:34:00,
2013-02-18 19:39:00,28.0,7.3,28.79,WNW,292,0.0,0.0,41,0.00,CLR,CLR,0.00,WeatherDisplay:10.37,2013-02-19 01:39:00,
2013-02-18 19:44:00,27.9,7.2,28.79,NW,315,2.6,0.0,41,0.00,CLR,CLR,0.00,WeatherDisplay:10.37,2013-02-19 01:44:00,
2013-02-18 19:49:00,27.7,7.5,28.79,West,270,0.0,0.0,42,0.00,CLR,CLR,0.00,WeatherDisplay:10.37,2013-02-19 01:49:00,
2013-02-18 19:54:00,27.5,7.4,28.79,West,270,0.0,0.0,42,0.00,CLR,CLR,0.00,WeatherDisplay:10.37,2013-02-19 01:54:00,
2013-02-18 20:00:00,27.1,7.0,28.79,WNW,292,0.0,0.0,42,0.00,CLR,CLR,0.00,WeatherDisplay:10.37,2013-02-19 02:00:00,
2013-02-18 20:05:00,27.0,6.9,28.79,West,270,0.0,0.0,42,0.00,CLR,CLR,0.00,WeatherDisplay:10.37,2013-02-19 02:05:00,
2013-02-18 20:10:00,26.6,7.1,28.79,West,270,0.0,0.0,43,0.00,CLR,CLR,0.00,WeatherDisplay:10.37,2013-02-19 02:10:00,
2013-02-18 20:15:00,26.4,6.9,28.79,West,270,0.0,0.0,43,0.00,CLR,CLR,0.00,WeatherDisplay:10.37,2013-02-19 02:15:00,
2013-02-18 20:20:00,26.2,6.7,28.79,WNW,292,0.0,0.0,43,0.00,CLR,CLR,0.00,WeatherDisplay:10.37,2013-02-19 02:20:00,
2013-02-18 20:25:00,26.1,7.1,28.79,West,270,0.0,0.0,44,0.00,CLR,CLR,0.00,WeatherDisplay:10.37,2013-02-19 02:25:00,
2013-02-18 20:30:00,25.9,7.4,28.79,West,270,0.0,0.0,45,0.00,CLR,CLR,0.00,WeatherDisplay:10.37,2013-02-19 02:30:00,
2013-02-18 20:35:00,25.9,7.4,28.79,WSW,248,0.0,0.0,45,0.00,CLR,CLR,0.00,WeatherDisplay:10.37,2013-02-19 02:35:00,
2013-02-18 20:40:00,25.7,7.3,28.79,WSW,248,0.0,0.0,45,0.00,CLR,CLR,0.00,WeatherDisplay:10.37,2013-02-19 02:40:00,
2013-02-18 20:46:00,25.3,7.4,28.79,WSW,248,0.0,0.0,46,0.00,CLR,CLR,0.00,WeatherDisplay:10.37,2013-02-19 02:46:00,
2013-02-18 20:51:00,25.3,7.4,28.79,SW,225,0.0,0.0,46,0.00,CLR,CLR,0.00,WeatherDisplay:10.37,2013-02-19 02:51:00,
2013-02-18 20:56:00,25.5,8.1,28.79,West,270,0.0,0.0,47,0.00,CLR,CLR,0.00,WeatherDisplay:10.37,2013-02-19 02:56:00,
2013-02-18 21:01:00,25.3,7.9,28.79,West,270,0.0,0.0,47,0.00,CLR,CLR,0.00,WeatherDisplay:10.37,2013-02-19 03:01:00,
2013-02-18 21:07:00,25.2,7.7,28.79,WNW,292,0.0,0.0,47,0.00,CLR,CLR,0.00,WeatherDisplay:10.37,2013-02-19 03:07:00,
2013-02-18 21:12:00,25.0,8.0,28.79,WNW,292,0.0,0.0,48,0.00,CLR,CLR,0.00,WeatherDisplay:10.37,2013-02-19 03:12:00,
2013-02-18 21:17:00,25.0,8.0,28.79,West,270,0.0,0.0,48,0.00,CLR,CLR,0.00,WeatherDisplay:10.37,2013-02-19 03:17:00,
2013-02-18 21:23:00,24.8,8.3,28.79,WSW,248,0.0,0.0,49,0.00,CLR,CLR,0.00,WeatherDisplay:10.37,2013-02-19 03:23:00,
2013-02-18 21:28:00,24.8,8.3,28.79,WSW,248,0.0,0.0,49,0.00,CLR,CLR,0.00,WeatherDisplay:10.37,2013-02-19 03:28:00,
2013-02-18 21:33:00,24.6,8.6,28.82,WSW,248,0.0,0.0,50,0.00,CLR,CLR,0.00,WeatherDisplay:10.37,2013-02-19 03:33:00,
2013-02-18 21:38:00,24.6,8.6,28.82,WSW,248,0.0,0.0,50,0.00,CLR,CLR,0.00,WeatherDisplay:10.37,2013-02-19 03:38:00,
2013-02-18 21:43:00,24.6,9.0,28.82,WSW,248,0.0,0.0,51,0.00,CLR,CLR,0.00,WeatherDisplay:10.37,2013-02-19 03:43:00,
2013-02-18 21:49:00,24.6,9.0,28.82,WSW,248,0.0,0.0,51,0.00,CLR,CLR,0.00,WeatherDisplay:10.37,2013-02-19 03:49:00,
2013-02-18 21:55:00,24.6,9.0,28.82,WSW,248,0.0,0.0,51,0.00,CLR,CLR,0.00,WeatherDisplay:10.37,2013-02-19 03:55:00,
2013-02-18 22:01:00,24.6,9.5,28.82,SW,225,0.0,0.0,52,0.00,CLR,CLR,0.00,WeatherDisplay:10.37,2013-02-19 04:01:00,
2013-02-18 22:06:00,24.4,9.3,28.82,SW,225,0.0,0.0,52,0.00,CLR,CLR,0.00,WeatherDisplay:10.37,2013-02-19 04:06:00,
2013-02-18 22:12:00,24.3,9.1,28.82,SW,225,0.0,0.0,52,0.00,CLR,CLR,0.00,WeatherDisplay:10.37,2013-02-19 04:12:00,
2013-02-18 22:17:00,24.1,9.0,28.82,SW,225,0.0,0.0,52,0.00,CLR,CLR,0.00,WeatherDisplay:10.37,2013-02-19 04:17:00,
2013-02-18 22:22:00,23.9,9.2,28.82,SW,225,0.0,0.0,53,0.00,CLR,CLR,0.00,WeatherDisplay:10.37,2013-02-19 04:22:00,
2013-02-18 22:27:00,23.9,9.2,28.82,SW,225,0.0,0.0,53,0.00,CLR,CLR,0.00,WeatherDisplay:10.37,2013-02-19 04:27:00,
2013-02-18 22:32:00,24.1,9.4,28.82,SW,225,0.0,0.0,53,0.00,CLR,CLR,0.00,WeatherDisplay:10.37,2013-02-19 04:32:00,
2013-02-18 22:37:00,24.1,9.4,28.82,West,270,0.0,0.0,53,0.00,CLR,CLR,0.00,WeatherDisplay:10.37,2013-02-19 04:37:00,
2013-02-18 22:42:00,24.3,9.6,28.82,WNW,292,0.0,0.0,53,0.00,CLR,CLR,0.00,WeatherDisplay:10.37,2013-02-19 04:42:00,
2013-02-18 22:47:00,24.3,9.1,28.85,SW,225,0.0,0.0,52,0.00,CLR,CLR,0.00,WeatherDisplay:10.37,2013-02-19 04:47:00,
2013-02-18 22:52:00,24.3,9.1,28.85,WSW,248,0.0,0.0,52,0.00,CLR,CLR,0.00,WeatherDisplay:10.37,2013-02-19 04:52:00,
2013-02-18 22:57:00,23.9,9.2,28.85,SW,225,0.0,0.0,53,0.00,CLR,CLR,0.00,WeatherDisplay:10.37,2013-02-19 04:57:00,
2013-02-18 23:00:00,23.7,9.1,28.85,SW,225,2.3,0.0,53,0.00,CLR,CLR,0.00,WeatherDisplay:10.37,2013-02-19 05:00:00,
2013-02-18 23:05:00,23.5,8.9,28.85,SW,225,0.0,0.0,53,0.00,CLR,CLR,0.00,WeatherDisplay:10.37,2013-02-19 05:05:00,
2013-02-18 23:06:00,23.5,8.9,28.85,SW,225,0.0,0.0,53,0.00,CLR,CLR,0.00,WeatherDisplay:10.37,2013-02-19 05:06:00,
2013-02-18 23:11:00,23.5,8.9,28.85,SW,225,0.0,0.0,53,0.00,CLR,CLR,0.00,WeatherDisplay:10.37,2013-02-19 05:11:00,
2013-02-18 23:16:00,23.5,9.3,28.85,WSW,248,0.0,0.0,54,0.00,CLR,CLR,0.00,WeatherDisplay:10.37,2013-02-19 05:16:00,
2013-02-18 23:21:00,23.5,9.3,28.85,West,270,0.0,0.0,54,0.00,CLR,CLR,0.00,WeatherDisplay:10.37,2013-02-19 05:21:00,
2013-02-18 23:26:00,23.7,9.1,28.85,West,270,0.0,0.0,53,0.00,CLR,CLR,0.00,WeatherDisplay:10.37,2013-02-19 05:26:00,
2013-02-18 23:31:00,23.7,9.5,28.85,WNW,292,0.0,0.0,54,0.00,CLR,CLR,0.00,WeatherDisplay:10.37,2013-02-19 05:31:00,
2013-02-18 23:36:00,23.5,9.3,28.85,WNW,292,0.0,0.0,54,0.00,CLR,CLR,0.00,WeatherDisplay:10.37,2013-02-19 05:36:00,
2013-02-18 23:42:00,23.5,9.3,28.85,West,270,0.0,0.0,54,0.00,CLR,CLR,0.00,WeatherDisplay:10.37,2013-02-19 05:42:00,
2013-02-18 23:45:00,23.5,9.3,28.85,WNW,292,0.0,0.0,54,0.00,CLR,CLR,0.00,WeatherDisplay:10.37,2013-02-19 05:45:00,
2013-02-18 23:50:00,23.5,9.3,28.85,West,270,0.0,0.0,54,0.00,CLR,CLR,0.00,WeatherDisplay:10.37,2013-02-19 05:50:00,
2013-02-18 23:55:00,23.5,9.3,28.85,WNW,292,0.0,0.0,54,0.00,CLR,CLR,0.00,WeatherDisplay:10.37,2013-02-19 05:55:00,